RH
32 31 31 32 35 36 36 37 40 43 47 48 47 47 46 47 50 50 51 52 47 46 50 49 48 52 55 58 60 63 62 56 50 46 45 44 41 40 40 40 38 34
31 32 33 34 36 36 35 35 38 42 45 46 47 47 47 50 53 53 54 56 55 54 57 56 55 57 59 60 62 66 67 64 58 51 47 47 46 44 43 41 41 37
32 32 34 36 37 36 35 34 36 39 41 43 44 48 51 53 56 57 55 55 58 61 61 61 64 64 65 65 65 67 68 66 63 59 55 51 49 48 46 43 43 41
31 32 34 37 38 37 35 34 35 36 38 40 42 47 53 55 58 60 56 53 56 62 64 62 66 69 70 71 70 69 68 65 64 64 64 60 52 47 46 45 45 47
31 33 34 36 37 37 36 34 35 37 38 41 43 47 52 54 55 57 57 54 56 63 66 61 62 67 70 70 69 67 66 67 67 65 63 64 58 49 46 45 46 49
32 33 34 35 34 36 38 37 38 40 41 44 48 49 51 52 50 51 54 54 53 58 60 55 55 60 63 65 65 63 63 68 74 71 64 62 62 57 53 51 50 52
33 32 32 33 33 35 37 39 41 42 43 47 52 52 50 48 46 46 48 49 52 55 53 51 53 54 58 62 63 62 63 66 74 77 69 61 64 65 63 61 58 54
32 32 32 33 34 35 38 40 42 44 45 47 53 54 48 46 45 44 46 48 51 52 51 53 55 54 57 61 62 62 62 63 71 75 68 61 65 69 70 69 62 55
32 33 33 34 35 37 40 41 41 43 45 45 52 55 47 44 44 44 45 45 46 47 49 53 55 55 59 62 63 63 62 65 72 73 67 66 71 73 73 71 65 60
33 34 36 37 38 39 41 42 43 47 47 45 51 53 44 40 42 42 40 40 40 43 46 50 51 54 59 62 62 64 64 67 72 73 72 75 79 80 76 72 70 69
37 38 40 40 41 42 43 45 49 52 51 46 46 47 43 40 40 38 38 37 38 41 46 47 45 49 57 60 61 62 63 66 72 73 76 79 81 79 74 72 74 74
41 41 42 43 44 45 47 49 52 55 54 49 46 47 46 44 42 39 39 38 39 45 50 47 44 46 49 54 60 62 60 63 70 74 78 83 83 77 74 75 77 75
41 42 42 44 45 46 47 49 52 54 55 54 52 53 52 48 45 43 41 39 38 44 47 46 48 47 41 45 58 64 62 63 69 74 78 82 81 74 74 79 78 72
41 42 42 44 45 46 46 48 50 52 55 58 56 55 56 53 47 45 43 40 38 44 48 49 51 46 35 41 57 64 65 65 67 74 78 79 77 72 74 79 74 66
42 42 44 45 45 46 46 47 49 50 54 59 58 56 58 57 53 50 48 44 40 44 52 55 51 42 35 42 56 64 67 64 65 72 77 75 73 74 77 76 68 62
43 43 44 45 46 47 47 48 49 50 53 58 59 58 57 57 57 54 51 51 46 46 56 59 50 40 37 43 54 64 66 62 63 69 71 69 72 77 79 73 65 63
43 44 45 46 47 50 51 50 50 52 53 55 58 59 58 57 57 53 52 55 53 51 58 59 48 42 43 45 52 60 63 63 67 68 67 68 72 76 76 71 65 64
43 45 45 46 47 50 54 55 53 53 55 57 58 59 59 57 57 54 54 56 55 54 56 54 50 50 50 51 55 58 60 67 72 70 66 67 71 73 73 70 66 63
43 45 45 47 47 48 54 57 56 56 58 60 61 62 62 61 60 58 58 57 57 56 53 49 50 52 51 54 61 60 61 69 74 71 66 65 69 71 71 67 65 63
43 45 47 50 51 51 56 59 59 60 62 63 65 66 65 63 61 60 60 59 56 53 49 47 51 53 55 59 62 63 67 73 72 68 65 63 65 67 66 64 64 64
41 43 48 54 55 55 58 60 60 60 62 63 64 63 62 60 59 59 59 56 52 50 49 49 52 58 64 64 63 68 75 75 70 66 64 61 60 62 63 61 61 61
40 43 51 55 55 57 58 58 59 60 60 62 61 59 60 60 59 59 58 54 51 50 50 51 53 61 67 65 63 69 76 74 68 64 61 58 58 60 62 61 59 59
40 44 52 55 54 56 58 59 60 60 61 64 63 61 61 60 59 60 58 54 51 49 49 53 57 60 63 64 63 64 67 68 66 63 59 56 56 58 60 61 61 61
40 43 49 54 55 57 59 61 62 62 64 66 65 63 61 60 60 60 57 54 53 50 49 55 59 60 62 66 67 64 62 63 63 61 57 55 55 58 60 61 62 62
40 40 44 50 56 58 60 62 63 64 65 66 66 64 61 58 59 58 55 55 56 54 55 59 62 62 63 65 66 63 59 57 58 58 56 55 58 61 63 64 64 64
39 40 41 48 55 60 62 62 64 65 66 66 66 64 60 57 56 54 54 57 59 58 59 60 61 63 64 63 62 61 56 55 56 58 57 58 62 66 68 69 68 68